Location: Caltech
(34.1382°N, 118.1253°W)
Time: 21:43:04
(UTC-07:00)

Hamsat - Visible Passes

Search period start: 21 April 2018 00:00
Search period end: 01 May 2018 00:00
Orbit: 585 x 617 km, 97.7° (Epoch: 21 April)

Date Brightness Start Highest point End Pass type
(mag) Time Alt. Az. Time Alt. Az. Time Alt. Az.
21 Apr ? 04:18:49 10° NNE 04:22:55 54° E 04:24:49 28° SSE visible
22 Apr ? 04:30:14 10° NNE 04:34:25 77° ESE 04:36:32 28° S visible
23 Apr ? 04:41:43 10° N 04:45:54 76° WNW 04:48:15 25° SSW visible
24 Apr ? 04:53:17 10° N 04:57:21 53° WNW 04:59:58 20° SW visible
25 Apr ? 03:30:55 10° ENE 03:32:55 13° E 03:34:54 10° ESE visible
25 Apr ? 05:04:56 10° N 05:08:48 38° WNW 05:11:40 16° SW visible
26 Apr ? 03:41:36 10° NE 03:44:30 18° E 03:46:36 13° SE visible
26 Apr ? 05:16:41 10° NNW 05:20:13 28° WNW 05:23:23 12° SW visible
27 Apr ? 03:52:36 10° NE 03:56:03 25° E 03:58:19 16° SE visible
27 Apr ? 05:28:32 10° NNW 05:31:38 21° WNW 05:34:42 10° WSW visible
28 Apr ? 04:03:47 10° NNE 04:07:35 34° E 04:10:01 19° SSE visible
29 Apr ? 04:15:05 10° NNE 04:19:06 48° E 04:21:42 20° SSE visible
30 Apr ? 04:26:28 10° NNE 04:30:37 69° ESE 04:33:24 20° S visible
